User: anonymous   Login
Location: Springfield
(37.2150°N, 93.2980°W)
Time: 21:55:48
(UTC-05:00)
Language:

Iridium 62 - Orbit

View from above orbital plane
View from above orbital plane
View from above satellite
View from above satellite

Ground track
Ground track

The orbit data is extracted from the following two-line orbital elements,

1 25285U 98021A   15185.41199461  .00000027  00000-0  24205-5 0  9994
2 25285 086.3979 162.2856 0002312 089.9281 270.2180 14.34217973902711
Epoch (UTC): 04 July 2015 09:53:16
Eccentricity: 0.0002312
inclination: 86.3979°
perigee height: 776 km
apogee height: 779 km
right ascension of ascending node: 162.2856°
argument of perigee: 89.9281°
revolutions per day: 14.34217973
mean anomaly at epoch: 270.2180°
orbit number at epoch: 90271

The dashed part of the orbit path shows where the satellite is in the earth's shadow,  

DLR